User: anonymous   Login
Location: downtown San Diego
(32.7310°N, 117.1990°W)
Time: 10:34:17
(UTC-08:00)
Language:

Cosmos 1844 Rocket - Orbit

View from above orbital plane
View from above orbital plane
View from above satellite
View from above satellite

Ground track
Ground track

The orbit data is extracted from the following two-line orbital elements,

1 17974U 87041B   19054.22651718 -.00000212  00000-0 -81320-4 0  9994
2 17974  71.0081  51.8961 0013953 183.0625 254.8677 14.17251136643961
Epoch (UTC): 23 February 2019 05:26:11
Eccentricity: 0.0013953
inclination: 71.0081°
perigee height: 824 km
apogee height: 845 km
right ascension of ascending node: 51.8961°
argument of perigee: 183.0625°
revolutions per day: 14.17251136
mean anomaly at epoch: 254.8677°
orbit number at epoch: 64396

The dashed part of the orbit path shows where the satellite is in the earth's shadow,  

DLR